sat.trackr.live / text

‹ back to catalog

STARLINK-31812

NORAD 59800 · 2024-093U

PAYLOAD ACTIVE UNKNOWN

§ Identity

Operator
Country
US
Launch date
2024-05-18
Launch site
AFETR
Launch vehicle
Mass (kg)
RCS (m²)

Purposes: comms

External: N2YO · Heavens-Above · Gunter

§ Orbital elements

Epoch: 2026-09-21T04:34:02.547264Z

Period
94.27 min
Inclination
43.0011°
Eccentricity
0.0001382
Mean motion
15.27590841 rev/d
Perigee alt
482.1 km
Apogee alt
484.0 km
Semi-major
6,861.2 km
B*
8.9852e-5
RAAN
184.9004°
Arg perigee
263.7262°
Mean anomaly
96.3432°
Rev number
13,266

§ Raw data

STARLINK-318121 59800U 24093U   26264.19030726  .00002212  00000+0  89852-4 0  99902 59800  43.0011 184.9004 0001382 263.7262  96.3432 15.27590841132668

JSON: /api/v1/satellites/59800 · /tle

For live sub-satellite position, see the globe view (requires WebGL).

§ Visibility from observer

Set your observer location to see the next 7 days of passes ≥ 10°. The values pass through the URL so the page stays shareable.

No JS? Fill the form by hand. The geolocation button needs JavaScript.